Date String (YYYY-MM-DD hh:mm:ss) UTC,Instrument flags,absolute air pressure of the measurement (hPa),sample flow rate (lpm),inlet stack bypass flow (lpm),air temperature of the measurement (°C),ambient temperature measured by the external sensor (°C),aerosol sample conditioner tube jacket temperature (°C),OPC LED temperature (°C),internal box temperature (°C),relative humidity of the measurement (%),span deviation,mass concentration of particles derived from Lorenz-Mie calculation of OPC scattering (μg/m³),mass concentration of particles derived from Lorenz-Mie calculation of OPC scattering (μg/m³),mass concentration of particles derived from Lorenz-Mie calculation of OPC scattering (μg/m³)
DateTimeUTC,F1_M11,P_M11,Q1_M11,Q2_M11,T1_M11,T2_M11,T3_M11,T4_M11,T5_M11,U1_M11,ZSPAN_M11,X0_M11,X2_M11,X1_M11
2023-11-23 19:00:00,SystemResetWarning,0830.9,4.99,000.00,022.9,021.8,000.0,031.3,024.1,16.5,0000.0,0008.56,0003.18,0002.38
2023-11-23 19:01:00,SystemResetWarning,0830.9,5.00,000.00,022.9,021.8,000.0,031.3,024.1,16.5,0000.0,0008.41,0003.16,0002.37
2023-11-23 19:02:00,SystemResetWarning,0830.8,5.01,000.00,022.9,021.8,000.0,031.2,024.1,16.6,0000.0,0008.16,0003.15,0002.36
2023-11-23 19:03:00,SystemResetWarning,0830.8,5.01,000.00,022.8,021.8,000.0,031.2,024.1,16.6,0000.0,0007.93,0003.17,0002.37
2023-11-23 19:04:00,SystemResetWarning,0830.8,4.99,000.00,022.8,021.8,000.0,031.2,024.1,16.6,0000.0,0007.98,0003.17,0002.38
2023-11-23 19:05:00,SystemResetWarning,0830.9,4.99,000.00,022.8,021.8,000.0,031.2,024.1,16.6,0000.0,0007.58,0003.15,0002.39
2023-11-23 19:06:00,SystemResetWarning,0830.8,5.00,000.00,022.8,021.8,000.0,031.2,024.1,16.6,0000.0,0007.55,0003.14,0002.38
2023-11-23 19:07:00,SystemResetWarning,0830.8,5.00,000.00,022.8,021.8,000.0,031.2,024.1,16.6,0000.0,0007.42,0003.13,0002.37
2023-11-23 19:08:00,SystemResetWarning,0830.8,5.00,000.00,022.8,021.7,000.0,031.2,024.0,16.7,0000.0,0007.78,0003.11,0002.38
2023-11-23 19:09:00,SystemResetWarning,0830.7,5.00,000.00,022.8,021.7,000.0,031.2,024.0,16.8,0000.0,0007.70,0003.04,0002.36
2023-11-23 19:10:00,SystemResetWarning,0830.7,5.00,000.00,022.7,021.7,000.0,031.2,024.0,16.8,0000.0,0007.29,0003.04,0002.36
2023-11-23 19:11:00,SystemResetWarning,0830.6,5.00,000.00,022.7,021.7,000.0,031.2,024.0,16.8,0000.0,0006.88,0003.03,0002.35
2023-11-23 19:12:00,SystemResetWarning,0830.6,5.00,000.00,022.7,021.6,000.0,031.1,023.9,16.8,0000.0,0006.84,0003.04,0002.34
2023-11-23 19:13:00,SystemResetWarning,0830.6,5.00,000.00,022.7,021.6,000.0,031.1,023.9,16.8,0000.0,0006.85,0003.05,0002.34
2023-11-23 19:14:00,SystemResetWarning,0830.6,5.00,000.00,022.7,021.6,000.0,031.1,023.9,16.9,0000.0,0006.72,0003.00,0002.32
2023-11-23 19:15:00,SystemResetWarning,0830.5,5.00,000.00,022.7,021.6,000.0,031.1,023.8,16.9,0000.0,0005.92,0003.02,0002.32
2023-11-23 19:16:00,SystemResetWarning,0830.5,5.00,000.00,022.6,021.6,000.0,031.1,023.8,16.8,0000.0,0005.92,0003.00,0002.30
2023-11-23 19:17:00,SystemResetWarning,0830.6,5.00,000.00,022.6,021.6,000.0,031.1,023.8,16.8,0000.0,0005.93,0003.02,0002.32
2023-11-23 19:18:00,SystemResetWarning,0830.6,5.00,000.00,022.6,021.6,000.0,031.0,023.8,16.9,0000.0,0005.96,0003.02,0002.35
2023-11-23 19:19:00,SystemResetWarning,0830.6,5.00,000.00,022.6,021.5,000.0,031.0,023.8,16.9,0000.0,0005.76,0003.09,0002.37
2023-11-23 19:20:00,SystemResetWarning,0830.6,5.00,000.00,022.6,021.5,000.0,031.0,023.8,16.9,0000.0,0006.81,0003.16,0002.41
2023-11-23 19:21:00,SystemResetWarning,0830.6,5.00,000.00,022.6,021.5,000.0,031.0,023.7,16.8,0000.0,0007.61,0003.18,0002.43
2023-11-23 19:22:00,SystemResetWarning,0830.5,5.00,000.00,022.5,021.5,000.0,031.0,023.8,16.8,0000.0,0007.78,0003.21,0002.47
2023-11-23 19:23:00,SystemResetWarning,0830.5,5.00,000.00,022.5,021.5,000.0,031.0,023.8,16.8,0000.0,0007.79,0003.22,0002.50
2023-11-23 19:24:00,SystemResetWarning,0830.5,5.00,000.00,022.5,021.4,000.0,031.0,023.7,16.8,0000.0,0007.89,0003.23,0002.52
2023-11-23 19:25:00,SystemResetWarning,0830.5,5.00,000.00,022.5,021.4,000.0,030.9,023.6,16.8,0000.0,0008.27,0003.28,0002.56
2023-11-23 19:26:00,SystemResetWarning,0830.9,5.00,000.00,022.4,021.4,000.0,030.9,023.5,16.7,0000.0,0008.38,0003.31,0002.59
2023-11-23 19:27:00,SystemResetWarning,0830.6,4.99,000.00,022.4,021.4,000.0,030.9,023.5,16.7,0000.0,0008.70,0003.34,0002.62
2023-11-23 19:28:00,SystemResetWarning,0830.5,4.99,000.00,022.4,021.3,000.0,030.9,023.5,16.7,0000.0,0008.81,0003.38,0002.63
2023-11-23 19:29:00,SystemResetWarning,0830.4,5.01,000.00,022.4,021.3,000.0,030.9,023.5,16.8,0000.0,0008.97,0003.43,0002.66
2023-11-23 19:30:00,SystemResetWarning,0830.4,5.01,000.00,022.3,021.3,000.0,030.8,023.5,16.8,0000.0,0008.73,0003.42,0002.68
2023-11-23 19:31:00,SystemResetWarning,0830.4,4.99,000.00,022.3,021.3,000.0,030.8,023.4,16.9,0000.0,0008.49,0003.41,0002.69
2023-11-23 19:32:00,SystemResetWarning,0830.4,4.99,000.00,022.3,021.3,000.0,030.8,023.4,17.0,0000.0,0008.75,0003.43,0002.70
2023-11-23 19:33:00,SystemResetWarning,0830.4,5.00,000.00,022.3,021.3,000.0,030.8,023.4,17.0,0000.0,0009.02,0003.45,0002.71
2023-11-23 19:34:00,SystemResetWarning,0830.4,5.00,000.00,022.3,021.2,000.0,030.8,023.4,17.0,0000.0,0009.14,0003.46,0002.74
2023-11-23 19:35:00,SystemResetWarning,0830.3,5.01,000.00,022.2,021.2,000.0,030.7,023.3,16.9,0000.0,0009.14,0003.49,0002.75
2023-11-23 19:36:00,SystemResetWarning,0830.3,5.01,000.00,022.2,021.2,000.0,030.7,023.3,16.9,0000.0,0008.88,0003.48,0002.75
2023-11-23 19:37:00,SystemResetWarning,0830.2,4.99,000.00,022.2,021.2,000.0,030.7,023.4,16.9,0000.0,0008.83,0003.45,0002.75
2023-11-23 19:38:00,SystemResetWarning,0830.2,4.99,000.00,022.2,021.2,000.0,030.7,023.4,17.0,0000.0,0008.71,0003.50,0002.77
2023-11-23 19:39:00,SystemResetWarning,0830.3,5.00,000.00,022.2,021.2,000.0,030.7,023.2,17.0,0000.0,0008.83,0003.53,0002.79
2023-11-23 19:40:00,SystemResetWarning,0830.3,5.00,000.00,022.1,021.1,000.0,030.6,023.1,17.1,0000.0,0009.08,0003.53,0002.79
2023-11-23 19:41:00,SystemResetWarning,0830.2,5.00,000.00,022.1,021.1,000.0,030.6,023.1,17.0,0000.0,0009.23,0003.54,0002.80
2023-11-23 19:42:00,SystemResetWarning,0830.2,5.00,000.00,022.1,021.1,000.0,030.6,023.1,17.0,0000.0,0008.93,0003.58,0002.82
2023-11-23 19:43:00,SystemResetWarning,0830.2,5.01,000.00,022.1,021.1,000.0,030.6,023.1,17.0,0000.0,0008.19,0003.61,0002.85
2023-11-23 19:44:00,SystemResetWarning,0830.2,5.00,000.00,022.0,021.0,000.0,030.6,023.1,17.0,0000.0,0007.86,0003.60,0002.86
2023-11-23 19:45:00,SystemResetWarning,0830.2,5.00,000.00,022.0,021.0,000.0,030.5,023.0,17.0,0000.0,0008.31,0003.62,0002.87
2023-11-23 19:46:00,SystemResetWarning,0830.2,4.99,000.00,022.0,021.0,000.0,030.5,023.0,17.1,0000.0,0008.20,0003.58,0002.88
2023-11-23 19:47:00,SystemResetWarning,0830.2,4.99,000.00,022.0,020.9,000.0,030.5,023.0,17.1,0000.0,0008.58,0003.62,0002.90
2023-11-23 19:48:00,SystemResetWarning,0830.2,5.00,000.00,021.9,020.9,000.0,030.5,022.9,17.2,0000.0,0008.69,0003.68,0002.92
2023-11-23 19:49:00,SystemResetWarning,0830.1,5.01,000.00,021.9,020.9,000.0,030.4,023.0,17.2,0000.0,0008.66,0003.68,0002.96
2023-11-23 19:50:00,SystemResetWarning,0830.1,5.01,000.00,021.9,020.9,000.0,030.4,022.9,17.2,0000.0,0008.56,0003.66,0002.98
2023-11-23 19:51:00,SystemResetWarning,0830.1,5.01,000.00,021.8,020.8,000.0,030.4,022.9,17.3,0000.0,0008.55,0003.66,0003.01
2023-11-23 19:52:00,SystemResetWarning,0830.1,5.00,000.00,021.8,020.8,000.0,030.4,022.9,17.3,0000.0,0008.48,0003.67,0003.03
2023-11-23 19:53:00,SystemResetWarning,0830.1,4.99,000.00,021.8,020.8,000.0,030.4,022.8,17.3,0000.0,0008.50,0003.70,0003.06
2023-11-23 19:54:00,SystemResetWarning,0830.1,5.00,000.00,021.8,020.8,000.0,030.3,022.8,17.3,0000.0,0008.44,0003.69,0003.07
2023-11-23 19:55:00,SystemResetWarning,0830.1,5.01,000.00,021.8,020.8,000.0,030.3,022.7,17.3,0000.0,0008.55,0003.73,0003.09
2023-11-23 19:56:00,SystemResetWarning,0830.1,5.01,000.00,021.7,020.8,000.0,030.3,022.7,17.3,0000.0,0008.19,0003.73,0003.10
2023-11-23 19:57:00,SystemResetWarning,0830.1,4.99,000.00,021.7,020.7,000.0,030.2,022.8,17.4,0000.0,0008.05,0003.76,0003.12
2023-11-23 19:58:00,SystemResetWarning,0830.1,4.99,000.00,021.7,020.7,000.0,030.2,022.9,17.4,0000.0,0008.03,0003.78,0003.14
2023-11-23 19:59:00,SystemResetWarning,0830.1,5.00,000.00,021.7,020.7,000.0,030.2,022.9,17.4,0000.0,0008.26,0003.74,0003.15
